World > North America > United States > Mississippi > Indianola  

Indianola, MS Hourly Weather Updates

Feedback E-mail the Weather

Quick Clicks

Indianola, MS Weather Maps

°F °C°F °C
Indianola Weather Map
UTC Time: 5/27/2024, 07:15
Your Time:

Indianola, MS Regional Weather

Expires:202405270800;;948499
ASUS44 KJAN 270710
RWRMS 

MISSISSIPPI HOURLY WEATHER ROUNDUP
NATIONAL WEATHER SERVICE JACKSON MS
200 AM CDT MON MAY 27 2024

NOTE: "FAIR: INDICATES FEW OR NO CLOUDS BELOW 12,000 FEET WITH NO
SIGNIFICANT WEATHER AND/OR OBSTRUCTIONS TO VISIBILITY.


MSZ001>002-007>008-010>013-018>021-025>028-034>036-270800-
NORTHWEST MISSISSIPPI
  
CITY           SKY/WX    TMP DP  RH WIND       PRES   REMARKS
BATESVILLE     CLOUDY    81  73  78 SW13      29.70F                  
CLARKSDALE       N/A     81  81 100 S14       29.73S HX  91           
GREENWOOD      CLOUDY    81  73  76 SW9       29.75                   
GREENVILLE     CLOUDY    83  74  74 SW14G23   29.75                   
OLIVE BRANCH   MOCLDY    68  68 100 S15G24    29.73R FOG              
OXFORD         CLOUDY    81  72  74 SW13      29.73F                  
TUNICA         CLOUDY    76  69  80 SW5       29.71S THUNDER          
WINONA         CLOUDY    80  72  75 S7        29.77S                  
$$


SKY/WX - Weather  TMP - Temperature  DP - Dew Point  RH - Humidity
WIND - Wind Direction/Speed PRES - Barometric Pressure VSB - Visibility
WCI - Wind Chill Index E13G22 Wind - East Wind 13 mph/Gusts of 22 mph

Trending Headlines

Trending Entertainment Headlines

Indianola Radar Loop

Use the map search tool if you want to place a location marker on the radar map...

Indianola Quick Facts

National Two Day Weather Forecast


E-mail the Indianola Weather Forecast

Voice your opinion or tell us about page issues...